[[{"header":{"parameterUnit":"m.s-1","parameterCategory":1,"la1":30.2991,"la2":30.254,"lo1":-89.0895,"lo2":-89.0444,"dy":0.0017,"dx":0.0017,"nx":28,"ny":28,"refTime":"2024-04-13T21:00:00:Z","depth":0,"parameterNumber":2,"parameterNumberName":"U-component_of_WINDS"},"data":[0,0,0,0,0,0,0,0,0,0,0,0,0,0,0,0,0,0,0,0,0,0,0,0,0,0,0,0,0,0,0,0,0,0,0,0,0,0,0,0,0,0,0,0,0,0,0,0,0,0,0,0,0,0,0,0,0,0,-1.3468,-1.3468,0,-1.3425,-1.3424,-1.3424,-1.3368,-1.3367,-1.3366,-1.3365,-1.332,-1.332,-1.332,0,0,0,0,0,0,0,0,0,0,0,0,0,-1.3506,-1.3505,-1.3468,-1.3468,-1.3467,-1.3425,-1.3424,-1.3423,-1.3368,-1.3367,-1.3366,-1.3365,-1.3321,-1.332,-1.332,0,0,0,0,0,0,0,0,0,0,0,0,0,-1.3479,-1.3505,-1.3468,-1.3434,-1.3431,-1.3425,-1.3424,-1.3423,-1.3368,-1.3367,-1.3365,-1.3364,-1.3321,-1.332,-1.332,-1.3343,0,0,-1.3318,-1.3318,0,0,0,0,0,0,0,0,-1.348,-1.3477,-1.344,-1.3437,-1.3433,-1.34,-1.3421,-1.3397,-1.3368,-1.3392,-1.3365,-1.3363,-1.3348,-1.3345,-1.334,-1.3341,-1.3339,-1.3318,-1.3318,-1.3317,-1.3317,0,0,0,0,0,0,0,-1.3482,-1.3479,-1.3451,-1.3439,-1.3435,-1.3422,-1.3417,-1.3416,-1.3378,-1.339,-1.3386,-1.3381,-1.3346,-1.3341,-1.3339,-1.3339,-1.3318,-1.3318,-1.3317,-1.3317,-1.336,-1.3362,0,0,0,0,0,0,-1.3489,-1.3481,-1.3452,-1.345,-1.3454,-1.3422,-1.3416,-1.3412,-1.3378,-1.3371,-1.3382,-1.3379,-1.3342,-1.3339,-1.3337,-1.3363,-1.3317,-1.3317,-1.3317,-1.3359,-1.3361,-1.3362,0,0,0,0,0,0,-1.349,-1.3487,-1.3454,-1.3464,-1.3459,-1.3423,-1.3419,-1.3412,-1.3406,-1.3372,-1.3365,-1.3384,-1.3341,-1.3337,-1.3343,-1.3361,-1.3317,-1.3316,-1.3357,-1.3359,-1.3361,-1.3417,0,0,0,0,0,0,-1.3491,-1.3488,-1.3496,-1.3465,-1.3459,-1.346,-1.342,-1.3412,-1.3406,-1.3401,-1.3372,-1.3366,-1.334,-1.3344,-1.3342,-1.336,-1.3316,-1.3355,-1.3358,-1.3361,-1.3413,-1.3421,-1.3427,0,0,0,0,0,-1.3493,-1.3512,-1.3496,-1.3493,-1.3468,-1.3461,-1.3458,-1.3427,-1.3407,-1.3416,-1.3394,-1.3367,-1.336,-1.3345,-1.3343,-1.336,-1.3354,-1.3357,-1.3361,-1.341,-1.3419,-1.3427,0,0,0,0,0,0,-1.3545,-1.3507,-1.3489,-1.3499,-1.3484,-1.3452,-1.3461,-1.3438,-1.3428,-1.3423,-1.3386,-1.338,-1.339,-1.3376,-1.336,-1.3383,-1.3353,-1.3356,-1.3391,-1.34,-1.3407,-1.3409,-1.3315,0,0,0,0,0,-1.3558,-1.3556,-1.3523,-1.3535,-1.3529,-1.3497,-1.3493,-1.3471,-1.3453,-1.3447,-1.3425,-1.341,-1.3405,-1.3402,-1.3394,-1.3412,-1.3405,-1.3423,-1.343,-1.3436,-1.3438,-1.3448,-1.3456,-1.3373,-1.3373,-1.3373,0,0,-1.3584,-1.3564,-1.3564,-1.3545,-1.3531,-1.353,-1.3491,-1.3491,-1.3491,-1.3447,-1.345,-1.3435,-1.3416,-1.3427,-1.3431,-1.3416,-1.346,-1.344,-1.3445,-1.3444,-1.3452,-1.346,-1.3467,-1.3375,-1.3375,-1.3374,0,0,-1.3632,-1.3615,-1.3624,-1.3612,-1.3591,-1.357,-1.3573,-1.3545,-1.3533,-1.3536,-1.3504,-1.3503,-1.3494,-1.3482,-1.3475,-1.3522,-1.3497,-1.3521,-1.3556,-1.3567,-1.3573,-1.3579,-1.3596,-1.3603,-1.3524,-1.3524,-1.3524,0,-1.3667,-1.3664,-1.3632,-1.3635,-1.3628,-1.359,-1.3599,-1.3589,-1.3567,-1.3563,-1.3546,-1.3536,-1.352,-1.3529,-1.3541,-1.3537,-1.3539,-1.3523,-1.3575,-1.358,-1.3585,-1.3601,-1.3608,-1.3527,-1.3527,-1.3526,-1.3526,0,-1.3708,-1.3707,-1.3717,-1.3698,-1.3693,-1.3699,-1.3669,-1.3668,-1.3648,-1.363,-1.3635,-1.3615,-1.3604,-1.3605,-1.3585,-1.3613,-1.3604,-1.3581,-1.3551,-1.3596,-1.3611,-1.3617,-1.3531,-1.353,-1.3529,-1.3529,0,0,-1.3784,-1.375,-1.3754,-1.3746,-1.3722,-1.3721,-1.3727,-1.3717,-1.3717,-1.3704,-1.3709,-1.3704,-1.3684,-1.3676,-1.3654,-1.3664,-1.3704,-1.364,-1.3639,-1.3653,-1.3735,-1.3752,-1.3759,-1.3688,-1.3689,-1.369,-1.3737,0,-1.3827,-1.3834,-1.3808,-1.3822,-1.3822,-1.3787,-1.3792,-1.3779,-1.3763,-1.3761,-1.3743,-1.374,-1.3713,-1.3709,-1.3716,-1.3697,-1.372,-1.3694,-1.3692,-1.3692,-1.3697,-1.3767,-1.3784,-1.3829,-1.3742,-1.3743,-1.3744,0,-1.3877,-1.3868,-1.3883,-1.386,-1.3859,-1.3864,-1.3854,-1.3853,-1.3838,-1.3826,-1.3819,-1.3795,-1.38,-1.3772,-1.378,-1.3763,-1.3761,-1.3753,-1.3754,-1.3752,-1.372,-1.3767,-1.3842,-1.3849,-1.3752,-1.3752,-1.3751,0,-1.3932,-1.3924,-1.3932,-1.3926,-1.39,-1.3905,-1.3894,-1.3878,-1.3875,-1.3867,-1.3864,-1.3857,-1.3853,-1.3849,-1.3824,-1.3805,-1.3836,-1.3805,-1.3826,-1.3827,-1.3833,-1.3832,-1.3909,-1.3833,-1.3833,-1.3832,-1.3832,0,-1.3981,-1.3992,-1.3956,-1.3961,-1.3973,-1.3943,-1.3956,-1.3942,-1.3929,-1.3931,-1.3901,-1.3904,-1.3872,-1.3872,-1.3853,-1.3863,-1.3862,-1.3853,-1.3847,-1.3855,-1.3856,-1.3853,-1.3849,-1.3834,-1.3834,-1.3833,-1.3833,0,-1.4044,-1.402,-1.4027,-1.4003,-1.3997,-1.4007,-1.3986,-1.3991,-1.3974,-1.3978,-1.3977,-1.3951,-1.395,-1.3926,-1.3919,-1.3906,-1.3925,-1.3914,-1.393,-1.3926,-1.3949,-1.3947,-1.4025,-1.4035,-1.3953,-1.3954,-1.3954,0,-1.4076,-1.4084,-1.4062,-1.4061,-1.4053,-1.4052,-1.4049,-1.4022,-1.402,-1.4006,-1.4012,-1.4009,-1.4005,-1.4006,-1.3986,-1.3982,-1.3971,-1.3999,-1.397,-1.3978,-1.3971,-1.3971,-1.3972,-1.4004,-1.4005,-1.4006,-1.4007,0,-1.4138,-1.4127,-1.4123,-1.4117,-1.4115,-1.4108,-1.41,-1.4102,-1.4072,-1.4072,-1.407,-1.4068,-1.4062,-1.406,-1.4053,-1.4043,-1.4021,-1.4017,-1.4021,-1.4029,-1.4038,-1.4034,-1.3946,-1.4014,-1.4013,-1.4013,-1.4013,-1.4012,-1.4186,-1.4192,-1.4178,-1.4176,-1.4167,-1.4161,-1.4165,-1.4149,-1.4148,-1.4141,-1.4126,-1.4128,-1.4116,-1.4104,-1.4097,-1.4099,-1.4085,-1.4091,-1.4093,-1.4095,-1.41,-1.4038,-1.4097,-1.4097,-1.4097,-1.4097,-1.4096,0,-1.4246,-1.4236,-1.4235,-1.4225,-1.4224,-1.4204,-1.4195,-1.4196,-1.4198,-1.4189,-1.4186,-1.4186,-1.4185,-1.4167,-1.4164,-1.4169,-1.4159,-1.4169,-1.4168,-1.4166,-1.4112,-1.4108,-1.4177,-1.4177,-1.4177,-1.4177,-1.4177,-1.4177,-1.4277,-1.4287,-1.4274,-1.428,-1.427,-1.4272,-1.4269,-1.4264,-1.4256,-1.4258,-1.4257,-1.4245,-1.4233,-1.4229,-1.4228,-1.4223,-1.4223,-1.4237,-1.4229,-1.4178,-1.417,-1.4162,-1.4159,-1.4237,-1.4237,-1.4283,-1.4283,-1.4283]},{"header":{"parameterUnit":"m.s-1","parameterCategory":1,"la1":30.2991,"la2":30.254,"lo1":-89.0895,"lo2":-89.0444,"dy":0.0017,"dx":0.0017,"nx":28,"ny":28,"refTime":"2024-04-13T21:00:00:Z","depth":0,"parameterNumber":3,"parameterNumberName":"V-component_of_WINDS"},"data":[0,0,0,0,0,0,0,0,0,0,0,0,0,0,0,0,0,0,0,0,0,0,0,0,0,0,0,0,0,0,0,0,0,0,0,0,0,0,0,0,0,0,0,0,0,0,0,0,0,0,0,0,0,0,0,0,0,0,3.3773,3.3773,0,3.3808,3.3808,3.3809,3.384,3.384,3.384,3.3841,3.3874,3.3874,3.3875,0,0,0,0,0,0,0,0,0,0,0,0,0,3.373,3.3731,3.3773,3.3773,3.3774,3.3808,3.3808,3.3809,3.384,3.384,3.3841,3.3841,3.3873,3.3874,3.3875,0,0,0,0,0,0,0,0,0,0,0,0,0,3.3755,3.3731,3.3773,3.3793,3.3796,3.3808,3.3808,3.3809,3.384,3.384,3.3841,3.3841,3.3873,3.3874,3.3875,3.3869,0,0,3.3877,3.3878,0,0,0,0,0,0,0,0,3.3754,3.3757,3.379,3.3792,3.3794,3.382,3.3805,3.3829,3.3839,3.3823,3.3841,3.3841,3.3855,3.3857,3.3863,3.387,3.3872,3.3877,3.3878,3.3878,3.3878,0,0,0,0,0,0,0,3.3752,3.3756,3.3787,3.379,3.3793,3.38,3.3804,3.381,3.3835,3.3824,3.3827,3.383,3.3856,3.3862,3.3864,3.3872,3.3877,3.3878,3.3878,3.3879,3.3877,3.3876,0,0,0,0,0,0,3.3748,3.3754,3.3786,3.3788,3.3775,3.38,3.3805,3.3811,3.3835,3.384,3.383,3.3832,3.386,3.3863,3.3865,3.386,3.3878,3.3879,3.3879,3.3877,3.3877,3.3876,0,0,0,0,0,0,3.3747,3.375,3.3784,3.3772,3.3776,3.3801,3.3807,3.3812,3.3817,3.384,3.3844,3.3831,3.3861,3.3864,3.3868,3.3861,3.3879,3.388,3.3878,3.3877,3.3876,3.3849,0,0,0,0,0,0,3.3745,3.375,3.3748,3.3771,3.3777,3.3787,3.3807,3.3812,3.3819,3.3821,3.3842,3.3846,3.3861,3.3866,3.3869,3.3863,3.3881,3.3879,3.3877,3.3877,3.385,3.3847,3.3844,0,0,0,0,0,3.3744,3.3738,3.3748,3.3751,3.3776,3.3787,3.379,3.3809,3.3818,3.3816,3.3831,3.3845,3.3862,3.3867,3.3869,3.3863,3.3879,3.3878,3.3877,3.3852,3.3848,3.3844,0,0,0,0,0,0,3.3712,3.3741,3.3752,3.3754,3.3768,3.3792,3.379,3.3804,3.3814,3.3816,3.3839,3.3843,3.3844,3.3854,3.3859,3.3859,3.3872,3.3872,3.3852,3.3849,3.3846,3.3843,3.3881,0,0,0,0,0,3.3706,3.3713,3.3738,3.3737,3.3743,3.3766,3.3771,3.3785,3.3799,3.3805,3.382,3.3832,3.3841,3.3845,3.3854,3.3852,3.3857,3.3849,3.3846,3.3844,3.3843,3.3843,3.384,3.3872,3.3872,3.3872,0,0,3.3692,3.3709,3.3712,3.3731,3.3743,3.375,3.377,3.3776,3.3781,3.3805,3.381,3.3822,3.3837,3.3838,3.384,3.3847,3.3835,3.3842,3.384,3.384,3.3841,3.3838,3.3835,3.3871,3.3871,3.3872,0,0,3.367,3.3683,3.3685,3.3697,3.3715,3.373,3.373,3.3752,3.3761,3.3767,3.3786,3.3791,3.3805,3.3816,3.3823,3.3806,3.3819,3.3808,3.3792,3.3792,3.3789,3.3787,3.3781,3.3778,3.3807,3.3807,3.3807,0,3.365,3.3661,3.3683,3.3688,3.3696,3.372,3.3721,3.3731,3.3751,3.3756,3.3764,3.3782,3.3794,3.3798,3.3794,3.3799,3.38,3.3805,3.3788,3.3786,3.3784,3.3779,3.3776,3.3805,3.3805,3.3806,3.3806,0,3.3636,3.3643,3.3642,3.3662,3.367,3.3673,3.3695,3.37,3.3713,3.3727,3.3732,3.3748,3.3761,3.3763,3.3775,3.3769,3.3773,3.3784,3.3798,3.3779,3.3775,3.3773,3.3803,3.3804,3.3804,3.3805,0,0,3.3594,3.3627,3.3626,3.3636,3.3659,3.3664,3.3668,3.3682,3.3686,3.3699,3.3703,3.3714,3.3725,3.3733,3.3747,3.3747,3.3733,3.3758,3.3759,3.3753,3.3726,3.3718,3.3715,3.3742,3.3741,3.3741,3.3725,0,3.3576,3.3585,3.3606,3.3609,3.3616,3.3639,3.3643,3.3656,3.367,3.3677,3.3692,3.3699,3.3713,3.3718,3.3719,3.3734,3.3727,3.3736,3.3745,3.3745,3.374,3.3712,3.3703,3.3687,3.3723,3.3723,3.3723,0,3.3555,3.3569,3.3572,3.3596,3.3599,3.3602,3.3616,3.3624,3.364,3.3649,3.3659,3.3675,3.368,3.3693,3.3699,3.3704,3.3709,3.3717,3.3717,3.3718,3.3732,3.3713,3.3682,3.368,3.372,3.372,3.372,0,3.3525,3.3543,3.3548,3.3556,3.3582,3.3584,3.3595,3.3612,3.3619,3.3631,3.3636,3.3648,3.3654,3.3663,3.3682,3.3689,3.3686,3.3701,3.3694,3.3694,3.3692,3.3692,3.3662,3.3695,3.3695,3.3695,3.3696,0,3.3502,3.3503,3.3535,3.3538,3.354,3.3563,3.3565,3.3578,3.3593,3.3598,3.3619,3.3623,3.3647,3.3655,3.3669,3.3672,3.3675,3.3683,3.3686,3.3681,3.368,3.3684,3.3686,3.3695,3.3695,3.3695,3.3695,0,3.3468,3.3489,3.3496,3.3521,3.3528,3.3528,3.3549,3.3553,3.3568,3.3575,3.3577,3.36,3.361,3.363,3.3644,3.3654,3.3654,3.3661,3.3649,3.3651,3.3643,3.3643,3.3615,3.3612,3.3647,3.3647,3.3646,0,3.3451,3.3453,3.348,3.3485,3.3496,3.3505,3.3513,3.3535,3.3542,3.3562,3.3563,3.3574,3.3584,3.3598,3.3616,3.3627,3.3634,3.3623,3.3636,3.363,3.3634,3.3634,3.3634,3.362,3.362,3.3619,3.3619,0,3.3421,3.3432,3.3442,3.3457,3.3466,3.3478,3.3492,3.3495,3.3521,3.3528,3.3538,3.3547,3.3562,3.3573,3.3587,3.3598,3.3612,3.3615,3.3614,3.3608,3.3601,3.3605,3.3641,3.3616,3.3616,3.3616,3.3616,3.3617,3.3395,3.3398,3.3417,3.3429,3.3442,3.3454,3.3459,3.3475,3.3485,3.35,3.3513,3.3522,3.3539,3.3559,3.3569,3.3577,3.3584,3.3582,3.3582,3.3581,3.3579,3.3601,3.3579,3.3579,3.3579,3.3579,3.358,0,3.3366,3.3379,3.339,3.3409,3.3418,3.3432,3.3448,3.3454,3.3463,3.3478,3.3488,3.35,3.3511,3.353,3.3543,3.3545,3.3552,3.3547,3.3547,3.3549,3.3572,3.3571,3.3541,3.3541,3.3541,3.3541,3.3541,3.3541,3.3351,3.3357,3.337,3.3383,3.3397,3.3407,3.3415,3.3426,3.3438,3.3452,3.3461,3.3474,3.349,3.3504,3.3515,3.352,3.3523,3.3517,3.3524,3.3544,3.3548,3.3551,3.3551,3.3517,3.3517,3.3501,3.3501,3.3501]}]]